sat.trackr.live / text

‹ back to catalog

STARLINK-4002

NORAD 52612 · 2022-052Q

PAYLOAD ACTIVE UNKNOWN

§ Identity

Operator
Country
US
Launch date
2022-05-14
Launch site
AFETR
Launch vehicle
Mass (kg)
RCS (m²)

Purposes: comms

External: N2YO · Heavens-Above · Gunter

§ Orbital elements

Epoch: 2026-05-24T16:25:57.050976Z

Period
95.44 min
Inclination
53.2147°
Eccentricity
0.0001402
Mean motion
15.08839761 rev/d
Perigee alt
538.8 km
Apogee alt
540.7 km
Semi-major
6,917.9 km
B*
1.7170e-5
RAAN
297.9662°
Arg perigee
87.6394°
Mean anomaly
272.4758°
Rev number
22,233

§ Raw data

STARLINK-40021 52612U 22052Q   26144.68468809 -.00000015  00000+0  17170-4 0  99992 52612  53.2147 297.9662 0001402  87.6394 272.4758 15.08839761222330

JSON: /api/v1/satellites/52612 · /tle

For live sub-satellite position, see the globe view (requires WebGL).

§ Visibility from observer

Set your observer location to see the next 7 days of passes ≥ 10°. The values pass through the URL so the page stays shareable.

No JS? Fill the form by hand. The geolocation button needs JavaScript.